Time,TemperatureF,DewpointF,PressureIn,WindDirection,WindDirectionDegrees,WindSpeedMPH,WindSpeedGustMPH,Humidity,HourlyPrecipIn,Conditions,Clouds,dailyrainin,SoftwareType,DateUTC
2013-04-21 00:01:00,34.7,19.3,30.26,ENE,61,0.0,3.0,53,0.00,,,0.10,Wunderground v.1.13,2013-04-21 04:01:00,
2013-04-21 00:02:00,34.7,19.3,30.25,ESE,123,3.0,3.0,53,0.00,,,0.00,Wunderground v.1.13,2013-04-21 04:02:00,
2013-04-21 00:03:00,34.6,19.2,30.26,NE,48,5.0,5.0,53,0.00,,,0.00,Wunderground v.1.13,2013-04-21 04:03:00,
2013-04-21 00:04:00,34.6,18.8,30.26,West,281,5.0,5.0,52,0.00,,,0.00,Wunderground v.1.13,2013-04-21 04:04:00,
2013-04-21 00:09:00,34.6,19.2,30.26,WSW,257,2.0,7.0,53,0.00,,,0.00,Wunderground v.1.13,2013-04-21 04:09:00,
2013-04-21 00:14:00,34.7,19.3,30.25,ENE,63,5.0,5.0,53,0.00,,,0.00,Wunderground v.1.13,2013-04-21 04:14:00,
2013-04-21 00:19:00,34.7,19.3,30.26,SSE,158,3.0,3.0,53,0.00,,,0.00,Wunderground v.1.13,2013-04-21 04:19:00,
2013-04-21 00:24:00,34.7,19.3,30.26,ENE,74,3.0,3.0,53,0.00,,,0.00,Wunderground v.1.13,2013-04-21 04:24:00,
2013-04-21 00:30:00,34.7,19.3,30.27,WSW,243,1.0,2.0,53,0.00,,,0.00,Wunderground v.1.13,2013-04-21 04:30:00,
2013-04-21 00:35:00,34.6,19.6,30.27,WNW,296,1.0,2.0,54,0.00,,,0.00,Wunderground v.1.13,2013-04-21 04:35:00,
2013-04-21 00:41:00,34.6,20.1,30.27,East,79,4.0,4.0,55,0.00,,,0.00,Wunderground v.1.13,2013-04-21 04:41:00,
2013-04-21 00:47:00,34.4,20.3,30.28,NE,53,3.0,3.0,56,0.00,,,0.00,Wunderground v.1.13,2013-04-21 04:47:00,
2013-04-21 00:52:00,34.5,20.0,30.28,NE,38,3.0,3.0,55,0.00,,,0.00,Wunderground v.1.13,2013-04-21 04:52:00,
2013-04-21 00:58:00,34.7,20.6,30.29,WNW,284,2.0,2.0,56,0.00,,,0.00,Wunderground v.1.13,2013-04-21 04:58:00,
2013-04-21 01:04:00,34.7,21.0,30.29,SSE,165,0.0,5.0,57,0.00,,,0.00,Wunderground v.1.13,2013-04-21 05:04:00,
2013-04-21 01:09:00,34.7,20.6,30.29,SW,233,1.0,4.0,56,0.00,,,0.00,Wunderground v.1.13,2013-04-21 05:09:00,
2013-04-21 01:15:00,34.6,20.9,30.29,ENE,59,2.0,4.0,57,0.00,,,0.00,Wunderground v.1.13,2013-04-21 05:15:00,
2013-04-21 01:20:00,34.5,21.2,30.29,WNW,300,1.0,5.0,58,0.00,,,0.00,Wunderground v.1.13,2013-04-21 05:20:00,
2013-04-21 01:26:00,34.4,21.1,30.29,NNW,329,1.0,2.0,58,0.00,,,0.00,Wunderground v.1.13,2013-04-21 05:26:00,
2013-04-21 01:32:00,34.4,21.5,30.29,NW,315,0.0,2.0,59,0.00,,,0.00,Wunderground v.1.13,2013-04-21 05:32:00,
2013-04-21 01:37:00,34.4,21.9,30.30,West,264,4.0,4.0,60,0.00,,,0.00,Wunderground v.1.13,2013-04-21 05:37:00,
2013-04-21 01:43:00,34.4,21.5,30.30,NNE,15,2.0,4.0,59,0.00,,,0.00,Wunderground v.1.13,2013-04-21 05:43:00,
2013-04-21 01:48:00,34.3,21.8,30.30,South,185,2.0,3.0,60,0.00,,,0.00,Wunderground v.1.13,2013-04-21 05:48:00,
2013-04-21 01:53:00,34.2,21.7,30.30,NNE,20,0.0,3.0,60,0.00,,,0.00,Wunderground v.1.13,2013-04-21 05:53:00,
2013-04-21 01:59:00,34.0,21.6,30.31,NNW,341,10.0,10.0,60,0.00,,,0.00,Wunderground v.1.13,2013-04-21 05:59:00,
2013-04-21 02:04:00,33.8,21.4,30.30,NE,45,2.0,7.0,60,0.00,,,0.00,Wunderground v.1.13,2013-04-21 06:04:00,
2013-04-21 02:10:00,33.8,21.8,30.31,NNW,344,3.0,3.0,61,0.00,,,0.00,Wunderground v.1.13,2013-04-21 06:10:00,
2013-04-21 02:15:00,33.7,21.3,30.31,SSE,159,2.0,2.0,60,0.00,,,0.00,Wunderground v.1.13,2013-04-21 06:15:00,
2013-04-21 02:20:00,33.5,21.1,30.32,NNW,327,1.0,2.0,60,0.00,,,0.00,Wunderground v.1.13,2013-04-21 06:20:00,
2013-04-21 02:25:00,33.4,21.4,30.32,NNW,342,0.0,2.0,61,0.00,,,0.00,Wunderground v.1.13,2013-04-21 06:25:00,
2013-04-21 02:30:00,33.4,21.0,30.32,ENE,75,0.0,2.0,60,0.00,,,0.00,Wunderground v.1.13,2013-04-21 06:30:00,
2013-04-21 02:35:00,33.3,20.5,30.32,NNW,329,2.0,4.0,59,0.00,,,0.00,Wunderground v.1.13,2013-04-21 06:35:00,
2013-04-21 02:40:00,33.2,20.0,30.33,ENE,59,3.0,4.0,58,0.00,,,0.00,Wunderground v.1.13,2013-04-21 06:40:00,
2013-04-21 02:45:00,33.2,20.0,30.33,NE,46,0.0,2.0,58,0.00,,,0.00,Wunderground v.1.13,2013-04-21 06:45:00,
2013-04-21 02:50:00,33.1,19.5,30.33,NNW,343,1.0,2.0,57,0.00,,,0.00,Wunderground v.1.13,2013-04-21 06:50:00,
2013-04-21 02:55:00,33.0,19.8,30.33,East,94,4.0,4.0,58,0.00,,,0.00,Wunderground v.1.13,2013-04-21 06:55:00,
2013-04-21 03:01:00,33.0,19.4,30.33,SE,140,4.0,4.0,57,0.00,,,0.00,Wunderground v.1.13,2013-04-21 07:01:00,
2013-04-21 03:06:00,33.0,19.4,30.34,ENE,69,3.0,3.0,57,0.00,,,0.00,Wunderground v.1.13,2013-04-21 07:06:00,
2013-04-21 03:11:00,32.9,19.3,30.34,West,263,0.0,3.0,57,0.00,,,0.00,Wunderground v.1.13,2013-04-21 07:11:00,
2013-04-21 03:16:00,32.9,19.3,30.34,ENE,57,1.0,4.0,57,0.00,,,0.00,Wunderground v.1.13,2013-04-21 07:16:00,
2013-04-21 03:21:00,32.8,19.2,30.34,North,350,0.0,5.0,57,0.00,,,0.00,Wunderground v.1.13,2013-04-21 07:21:00,
2013-04-21 03:26:00,32.8,18.8,30.34,North,355,0.0,1.0,56,0.00,,,0.00,Wunderground v.1.13,2013-04-21 07:26:00,
2013-04-21 03:32:00,32.8,19.2,30.35,NNE,15,0.0,1.0,57,0.00,,,0.00,Wunderground v.1.13,2013-04-21 07:32:00,
2013-04-21 03:37:00,32.7,19.5,30.35,NNE,24,0.0,3.0,58,0.00,,,0.00,Wunderground v.1.13,2013-04-21 07:37:00,
2013-04-21 03:42:00,32.7,19.1,30.35,NNW,342,2.0,2.0,57,0.00,,,0.00,Wunderground v.1.13,2013-04-21 07:42:00,
2013-04-21 03:47:00,32.7,19.1,30.36,West,267,2.0,3.0,57,0.00,,,0.00,Wunderground v.1.13,2013-04-21 07:47:00,
2013-04-21 03:52:00,32.7,19.1,30.36,West,267,2.0,3.0,57,0.00,,,0.00,Wunderground v.1.13,2013-04-21 07:52:00,
2013-04-21 03:57:00,32.7,19.1,30.36,NW,313,0.0,3.0,57,0.00,,,0.00,Wunderground v.1.13,2013-04-21 07:57:00,
2013-04-21 04:02:00,32.6,19.0,30.36,NNE,21,0.0,4.0,57,0.00,,,0.00,Wunderground v.1.13,2013-04-21 08:02:00,
2013-04-21 04:07:00,32.6,19.0,30.37,West,279,4.0,10.0,57,0.00,,,0.00,Wunderground v.1.13,2013-04-21 08:07:00,
2013-04-21 04:12:00,32.5,18.9,30.37,East,100,2.0,5.0,57,0.00,,,0.00,Wunderground v.1.13,2013-04-21 08:12:00,
2013-04-21 04:17:00,32.5,18.9,30.37,WSW,254,2.0,9.0,57,0.00,,,0.00,Wunderground v.1.13,2013-04-21 08:17:00,
2013-04-21 04:22:00,32.4,19.3,30.38,NNE,15,0.0,6.0,58,0.00,,,0.00,Wunderground v.1.13,2013-04-21 08:22:00,
2013-04-21 04:27:00,32.3,18.8,30.38,NNW,346,1.0,3.0,57,0.00,,,0.00,Wunderground v.1.13,2013-04-21 08:27:00,
2013-04-21 04:32:00,32.3,19.2,30.38,SSE,155,1.0,5.0,58,0.00,,,0.00,Wunderground v.1.13,2013-04-21 08:32:00,
2013-04-21 04:37:00,32.3,19.2,30.38,WNW,285,6.0,6.0,58,0.00,,,0.00,Wunderground v.1.13,2013-04-21 08:37:00,
2013-04-21 04:42:00,32.2,19.5,30.38,ENE,57,3.0,6.0,59,0.00,,,0.00,Wunderground v.1.13,2013-04-21 08:42:00,
2013-04-21 04:48:00,32.2,19.1,30.39,NNE,13,4.0,7.0,58,0.00,,,0.00,Wunderground v.1.13,2013-04-21 08:48:00,
2013-04-21 04:53:00,32.2,19.1,30.39,NNW,344,2.0,5.0,58,0.00,,,0.00,Wunderground v.1.13,2013-04-21 08:53:00,
2013-04-21 04:58:00,32.1,19.8,30.39,North,355,0.0,2.0,60,0.00,,,0.00,Wunderground v.1.13,2013-04-21 08:58:00,
2013-04-21 05:04:00,32.1,19.4,30.40,NW,318,1.0,6.0,59,0.00,,,0.00,Wunderground v.1.13,2013-04-21 09:04:00,
2013-04-21 05:09:00,32.1,19.8,30.40,North,355,1.0,5.0,60,0.00,,,0.00,Wunderground v.1.13,2013-04-21 09:09:00,
2013-04-21 05:14:00,32.0,20.1,30.40,NNE,27,7.0,7.0,61,0.00,,,0.00,Wunderground v.1.13,2013-04-21 09:14:00,
2013-04-21 05:19:00,31.9,20.3,30.41,NW,313,3.0,6.0,62,0.00,,,0.00,Wunderground v.1.13,2013-04-21 09:19:00,
2013-04-21 05:24:00,31.7,20.5,30.41,North,360,3.0,10.0,63,0.00,,,0.00,Wunderground v.1.13,2013-04-21 09:24:00,
2013-04-21 05:30:00,31.5,21.1,30.42,WNW,292,2.0,2.0,65,0.00,,,0.00,Wunderground v.1.13,2013-04-21 09:30:00,
2013-04-21 05:35:00,31.2,21.2,30.42,NNE,29,0.0,2.0,66,0.00,,,0.00,Wunderground v.1.13,2013-04-21 09:35:00,
2013-04-21 05:40:00,30.9,20.9,30.42,East,94,4.0,6.0,66,0.00,,,0.00,Wunderground v.1.13,2013-04-21 09:40:00,
2013-04-21 05:45:00,30.6,20.6,30.43,SW,222,1.0,2.0,66,0.00,,,0.00,Wunderground v.1.13,2013-04-21 09:45:00,
2013-04-21 05:50:00,30.3,19.9,30.43,NW,318,1.0,4.0,65,0.00,,,0.00,Wunderground v.1.13,2013-04-21 09:50:00,
2013-04-21 05:55:00,30.1,19.7,30.43,SSE,157,2.0,2.0,65,0.00,,,0.00,Wunderground v.1.13,2013-04-21 09:55:00,
2013-04-21 06:00:00,30.0,19.7,30.44,ENE,68,0.0,2.0,65,0.00,,,0.00,Wunderground v.1.13,2013-04-21 10:00:00,
2013-04-21 06:05:00,29.8,18.7,30.44,NE,44,3.0,3.0,63,0.00,,,0.00,Wunderground v.1.13,2013-04-21 10:05:00,
2013-04-21 06:11:00,29.8,18.7,30.45,NNW,331,4.0,5.0,63,0.00,,,0.00,Wunderground v.1.13,2013-04-21 10:11:00,
2013-04-21 06:16:00,29.7,18.6,30.45,North,350,1.0,5.0,63,0.00,,,0.00,Wunderground v.1.13,2013-04-21 10:16:00,
2013-04-21 06:21:00,29.6,18.2,30.46,NNE,18,0.0,2.0,62,0.00,,,0.00,Wunderground v.1.13,2013-04-21 10:21:00,
2013-04-21 06:26:00,29.5,17.7,30.46,ESE,103,6.0,6.0,61,0.00,,,0.00,Wunderground v.1.13,2013-04-21 10:26:00,
2013-04-21 06:31:00,29.4,17.2,30.47,NNE,32,3.0,5.0,60,0.00,,,0.00,Wunderground v.1.13,2013-04-21 10:31:00,
2013-04-21 06:36:00,29.3,17.5,30.47,NNW,345,0.0,3.0,61,0.00,,,0.00,Wunderground v.1.13,2013-04-21 10:36:00,
2013-04-21 06:41:00,29.2,17.4,30.48,NNE,20,0.0,5.0,61,0.00,,,0.00,Wunderground v.1.13,2013-04-21 10:41:00,
2013-04-21 06:46:00,29.2,17.0,30.48,NNE,15,1.0,7.0,60,0.00,,,0.00,Wunderground v.1.13,2013-04-21 10:46:00,
2013-04-21 06:51:00,29.2,17.0,30.48,NNE,17,4.0,7.0,60,0.00,,,0.00,Wunderground v.1.13,2013-04-21 10:51:00,
2013-04-21 06:56:00,29.4,17.2,30.48,WNW,290,2.0,11.0,60,0.00,,,0.00,Wunderground v.1.13,2013-04-21 10:56:00,
2013-04-21 07:02:00,29.6,16.6,30.49,East,90,2.0,7.0,58,0.00,,,0.00,Wunderground v.1.13,2013-04-21 11:02:00,
2013-04-21 07:07:00,29.7,16.7,30.50,NE,37,3.0,6.0,58,0.00,,,0.00,Wunderground v.1.13,2013-04-21 11:07:00,
2013-04-21 07:12:00,29.9,16.9,30.50,NNW,329,2.0,4.0,58,0.00,,,0.00,Wunderground v.1.13,2013-04-21 11:12:00,
2013-04-21 07:17:00,30.0,17.4,30.50,NE,42,0.0,3.0,59,0.00,,,0.00,Wunderground v.1.13,2013-04-21 11:17:00,
2013-04-21 07:22:00,30.2,18.0,30.50,NE,44,3.0,4.0,60,0.00,,,0.00,Wunderground v.1.13,2013-04-21 11:22:00,
2013-04-21 07:27:00,30.4,18.2,30.51,NNW,346,0.0,4.0,60,0.00,,,0.00,Wunderground v.1.13,2013-04-21 11:27:00,
2013-04-21 07:32:00,30.5,17.5,30.51,NNW,336,3.0,11.0,58,0.00,,,0.00,Wunderground v.1.13,2013-04-21 11:32:00,
2013-04-21 07:37:00,30.5,17.5,30.51,NNW,347,2.0,5.0,58,0.00,,,0.00,Wunderground v.1.13,2013-04-21 11:37:00,
2013-04-21 07:42:00,30.7,17.7,30.52,NE,40,1.0,10.0,58,0.00,,,0.00,Wunderground v.1.13,2013-04-21 11:42:00,
2013-04-21 07:47:00,31.0,17.9,30.52,NNW,348,7.0,8.0,58,0.00,,,0.00,Wunderground v.1.13,2013-04-21 11:47:00,
2013-04-21 07:52:00,31.0,17.1,30.52,NNE,27,3.0,7.0,56,0.00,,,0.00,Wunderground v.1.13,2013-04-21 11:52:00,
2013-04-21 07:57:00,31.2,18.1,30.52,NNE,22,1.0,4.0,58,0.00,,,0.00,Wunderground v.1.13,2013-04-21 11:57:00,
2013-04-21 08:02:00,31.4,17.5,30.52,North,355,3.0,4.0,56,0.00,,,0.00,Wunderground v.1.13,2013-04-21 12:02:00,
2013-04-21 08:07:00,31.5,17.6,30.52,NNE,30,3.0,3.0,56,0.00,,,0.00,Wunderground v.1.13,2013-04-21 12:07:00,
2013-04-21 08:12:00,31.8,17.9,30.52,NNE,29,0.0,3.0,56,0.00,,,0.00,Wunderground v.1.13,2013-04-21 12:12:00,
2013-04-21 08:18:00,32.3,18.3,30.53,South,186,2.0,6.0,56,0.00,,,0.00,Wunderground v.1.13,2013-04-21 12:18:00,
2013-04-21 08:23:00,32.7,18.3,30.53,North,360,1.0,6.0,55,0.00,,,0.00,Wunderground v.1.13,2013-04-21 12:23:00,
2013-04-21 08:28:00,33.1,18.2,30.53,NNW,346,6.0,6.0,54,0.00,,,0.00,Wunderground v.1.13,2013-04-21 12:28:00,
2013-04-21 08:33:00,33.2,17.9,30.54,WNW,292,0.0,6.0,53,0.00,,,0.00,Wunderground v.1.13,2013-04-21 12:33:00,
2013-04-21 08:38:00,33.4,17.6,30.54,NNW,331,4.0,14.0,52,0.00,,,0.00,Wunderground v.1.13,2013-04-21 12:38:00,
2013-04-21 08:43:00,33.4,18.1,30.54,WSW,256,0.0,6.0,53,0.00,,,0.00,Wunderground v.1.13,2013-04-21 12:43:00,
2013-04-21 08:48:00,34.0,18.2,30.55,North,5,0.0,3.0,52,0.00,,,0.00,Wunderground v.1.13,2013-04-21 12:48:00,
2013-04-21 08:53:00,34.1,18.3,30.55,NNE,21,1.0,11.0,52,0.00,,,0.00,Wunderground v.1.13,2013-04-21 12:53:00,
2013-04-21 08:58:00,33.9,17.2,30.55,North,360,5.0,9.0,50,0.00,,,0.00,Wunderground v.1.13,2013-04-21 12:58:00,
2013-04-21 09:04:00,34.3,18.5,30.55,NNE,15,3.0,11.0,52,0.00,,,0.00,Wunderground v.1.13,2013-04-21 13:04:00,
2013-04-21 09:09:00,34.4,17.2,30.55,NW,325,2.0,8.0,49,0.00,,,0.00,Wunderground v.1.13,2013-04-21 13:09:00,
2013-04-21 09:14:00,34.3,16.6,30.56,NNE,30,9.0,10.0,48,0.00,,,0.00,Wunderground v.1.13,2013-04-21 13:14:00,
2013-04-21 09:20:00,34.4,17.7,30.56,ENE,71,3.0,3.0,50,0.00,,,0.00,Wunderground v.1.13,2013-04-21 13:20:00,
2013-04-21 09:25:00,35.0,18.2,30.56,ENE,57,1.0,3.0,50,0.00,,,0.00,Wunderground v.1.13,2013-04-21 13:25:00,
2013-04-21 09:30:00,35.1,17.8,30.57,NW,317,2.0,3.0,49,0.00,,,0.00,Wunderground v.1.13,2013-04-21 13:30:00,
2013-04-21 09:35:00,35.4,18.1,30.56,NNE,17,1.0,3.0,49,0.00,,,0.00,Wunderground v.1.13,2013-04-21 13:35:00,
2013-04-21 09:40:00,35.5,18.7,30.57,East,94,3.0,3.0,50,0.00,,,0.00,Wunderground v.1.13,2013-04-21 13:40:00,
2013-04-21 09:45:00,35.7,17.9,30.57,ENE,65,4.0,4.0,48,0.00,,,0.00,Wunderground v.1.13,2013-04-21 13:45:00,
2013-04-21 09:50:00,36.3,18.5,30.57,NW,310,2.0,4.0,48,0.00,,,0.00,Wunderground v.1.13,2013-04-21 13:50:00,
2013-04-21 09:55:00,36.8,19.4,30.58,ESE,118,2.0,3.0,49,0.00,,,0.00,Wunderground v.1.13,2013-04-21 13:55:00,
2013-04-21 10:00:00,36.4,18.6,30.58,WNW,291,3.0,6.0,48,0.00,,,0.00,Wunderground v.1.13,2013-04-21 14:00:00,
2013-04-21 10:05:00,36.8,17.9,30.58,NE,36,5.0,5.0,46,0.00,,,0.00,Wunderground v.1.13,2013-04-21 14:05:00,
2013-04-21 10:10:00,36.8,19.4,30.58,NW,313,6.0,6.0,49,0.00,,,0.00,Wunderground v.1.13,2013-04-21 14:10:00,
2013-04-21 10:15:00,36.8,18.9,30.58,NE,48,7.0,7.0,48,0.00,,,0.00,Wunderground v.1.13,2013-04-21 14:15:00,
2013-04-21 10:20:00,37.0,19.1,30.59,NNE,29,2.0,3.0,48,0.00,,,0.00,Wunderground v.1.13,2013-04-21 14:20:00,
2013-04-21 10:25:00,37.1,17.2,30.58,NW,320,4.0,8.0,44,0.00,,,0.00,Wunderground v.1.13,2013-04-21 14:25:00,
2013-04-21 10:30:00,37.5,18.6,30.59,SSW,203,2.0,10.0,46,0.00,,,0.00,Wunderground v.1.13,2013-04-21 14:30:00,
2013-04-21 10:35:00,37.2,19.3,30.59,ESE,111,2.0,4.0,48,0.00,,,0.00,Wunderground v.1.13,2013-04-21 14:35:00,
2013-04-21 10:40:00,38.1,19.1,30.59,NNE,24,6.0,6.0,46,0.00,,,0.00,Wunderground v.1.13,2013-04-21 14:40:00,
2013-04-21 10:45:00,38.7,17.5,30.59,ENE,65,1.0,3.0,42,0.00,,,0.00,Wunderground v.1.13,2013-04-21 14:45:00,
2013-04-21 10:50:00,38.9,17.2,30.59,NW,319,3.0,9.0,41,0.00,,,0.00,Wunderground v.1.13,2013-04-21 14:50:00,
2013-04-21 10:55:00,38.4,16.7,30.59,NE,48,2.0,4.0,41,0.00,,,0.00,Wunderground v.1.13,2013-04-21 14:55:00,
2013-04-21 11:00:00,38.5,17.9,30.59,North,355,8.0,8.0,43,0.00,,,0.00,Wunderground v.1.13,2013-04-21 15:00:00,
2013-04-21 11:06:00,38.9,17.2,30.59,SW,218,2.0,9.0,41,0.00,,,0.00,Wunderground v.1.13,2013-04-21 15:06:00,
2013-04-21 11:11:00,39.1,17.9,30.59,West,265,7.0,7.0,42,0.00,,,0.00,Wunderground v.1.13,2013-04-21 15:11:00,
2013-04-21 11:16:00,39.0,17.8,30.59,NNW,333,6.0,6.0,42,0.00,,,0.00,Wunderground v.1.13,2013-04-21 15:16:00,
2013-04-21 11:21:00,39.5,17.7,30.59,ESE,119,0.0,10.0,41,0.00,,,0.00,Wunderground v.1.13,2013-04-21 15:21:00,
2013-04-21 11:27:00,40.1,17.7,30.59,NE,46,2.0,5.0,40,0.00,,,0.00,Wunderground v.1.13,2013-04-21 15:27:00,
2013-04-21 11:32:00,40.5,19.2,30.59,North,355,4.0,6.0,42,0.00,,,0.00,Wunderground v.1.13,2013-04-21 15:32:00,
2013-04-21 11:36:00,40.8,18.3,30.59,ENE,69,2.0,9.0,40,0.00,,,0.00,Wunderground v.1.13,2013-04-21 15:36:00,
2013-04-21 11:41:00,40.8,18.9,30.59,WSW,257,1.0,4.0,41,0.00,,,0.00,Wunderground v.1.13,2013-04-21 15:41:00,
2013-04-21 11:46:00,41.3,18.8,30.59,West,280,2.0,10.0,40,0.00,,,0.00,Wunderground v.1.13,2013-04-21 15:46:00,
2013-04-21 11:51:00,41.1,18.0,30.59,North,5,9.0,9.0,39,0.00,,,0.00,Wunderground v.1.13,2013-04-21 15:51:00,
2013-04-21 11:57:00,41.0,17.9,30.59,WSW,245,2.0,11.0,39,0.00,,,0.00,Wunderground v.1.13,2013-04-21 15:57:00,
2013-04-21 12:02:00,41.0,19.1,30.59,WSW,243,2.0,12.0,41,0.00,,,0.00,Wunderground v.1.13,2013-04-21 16:02:00,
2013-04-21 12:07:00,41.1,18.6,30.59,NNW,345,1.0,6.0,40,0.00,,,0.00,Wunderground v.1.13,2013-04-21 16:07:00,
2013-04-21 12:12:00,41.0,19.6,30.59,WSW,256,2.0,7.0,42,0.00,,,0.00,Wunderground v.1.13,2013-04-21 16:12:00,
2013-04-21 12:17:00,41.1,17.4,30.59,SW,235,4.0,9.0,38,0.00,,,0.00,Wunderground v.1.13,2013-04-21 16:17:00,
2013-04-21 12:22:00,41.7,19.1,30.59,NNW,338,2.0,12.0,40,0.00,,,0.00,Wunderground v.1.13,2013-04-21 16:22:00,
2013-04-21 12:27:00,41.9,18.1,30.59,WNW,303,3.0,7.0,38,0.00,,,0.00,Wunderground v.1.13,2013-04-21 16:27:00,
2013-04-21 12:32:00,41.9,18.7,30.59,North,5,2.0,10.0,39,0.00,,,0.00,Wunderground v.1.13,2013-04-21 16:32:00,
2013-04-21 12:37:00,42.3,18.5,30.59,WSW,256,10.0,10.0,38,0.00,,,0.00,Wunderground v.1.13,2013-04-21 16:37:00,
2013-04-21 12:42:00,42.1,18.3,30.59,NW,314,1.0,13.0,38,0.00,,,0.00,Wunderground v.1.13,2013-04-21 16:42:00,
2013-04-21 12:47:00,42.5,21.0,30.59,South,191,3.0,6.0,42,0.00,,,0.00,Wunderground v.1.13,2013-04-21 16:47:00,
2013-04-21 12:52:00,43.0,19.1,30.59,East,84,0.0,10.0,38,0.00,,,0.00,Wunderground v.1.13,2013-04-21 16:52:00,
2013-04-21 12:57:00,43.6,19.0,30.59,NW,322,10.0,12.0,37,0.00,,,0.00,Wunderground v.1.13,2013-04-21 16:57:00,
2013-04-21 13:02:00,43.9,20.5,30.59,NW,314,5.0,5.0,39,0.00,,,0.00,Wunderground v.1.13,2013-04-21 17:02:00,
2013-04-21 13:07:00,44.1,18.8,30.59,NNW,337,1.0,4.0,36,0.00,,,0.00,Wunderground v.1.13,2013-04-21 17:07:00,
2013-04-21 13:13:00,44.4,18.4,30.59,NNE,29,2.0,6.0,35,0.00,,,0.00,Wunderground v.1.13,2013-04-21 17:13:00,
2013-04-21 13:18:00,44.4,20.3,30.59,NE,46,3.0,6.0,38,0.00,,,0.00,Wunderground v.1.13,2013-04-21 17:18:00,
2013-04-21 13:23:00,44.9,19.5,30.59,NW,315,10.0,10.0,36,0.00,,,0.00,Wunderground v.1.13,2013-04-21 17:23:00,
2013-04-21 13:28:00,44.6,19.9,30.59,North,11,2.0,9.0,37,0.00,,,0.00,Wunderground v.1.13,2013-04-21 17:28:00,
2013-04-21 13:33:00,44.8,19.4,30.59,NE,39,5.0,8.0,36,0.00,,,0.00,Wunderground v.1.13,2013-04-21 17:33:00,
2013-04-21 13:39:00,45.0,19.6,30.59,West,279,2.0,11.0,36,0.00,,,0.00,Wunderground v.1.13,2013-04-21 17:39:00,
2013-04-21 13:44:00,44.6,17.9,30.59,West,274,6.0,7.0,34,0.00,,,0.00,Wunderground v.1.13,2013-04-21 17:44:00,
2013-04-21 13:49:00,44.2,18.2,30.59,West,267,2.0,5.0,35,0.00,,,0.00,Wunderground v.1.13,2013-04-21 17:49:00,
2013-04-21 13:54:00,44.0,19.4,30.59,NNW,346,6.0,11.0,37,0.00,,,0.00,Wunderground v.1.13,2013-04-21 17:54:00,
2013-04-21 13:59:00,44.4,20.3,30.59,ENE,59,2.0,4.0,38,0.00,,,0.00,Wunderground v.1.13,2013-04-21 17:59:00,
2013-04-21 14:04:00,44.9,18.2,30.60,WNW,287,4.0,9.0,34,0.00,,,0.00,Wunderground v.1.13,2013-04-21 18:04:00,
2013-04-21 14:10:00,45.0,19.0,30.60,NNE,28,2.0,3.0,35,0.00,,,0.00,Wunderground v.1.13,2013-04-21 18:10:00,
2013-04-21 14:15:00,45.6,18.1,30.60,North,360,0.0,2.0,33,0.00,,,0.00,Wunderground v.1.13,2013-04-21 18:15:00,
2013-04-21 14:20:00,46.1,18.6,30.60,NNE,30,4.0,4.0,33,0.00,,,0.00,Wunderground v.1.13,2013-04-21 18:20:00,
2013-04-21 14:25:00,45.9,17.7,30.60,NW,314,3.0,4.0,32,0.00,,,0.00,Wunderground v.1.13,2013-04-21 18:25:00,
2013-04-21 14:30:00,45.4,17.2,30.60,North,11,2.0,4.0,32,0.00,,,0.00,Wunderground v.1.13,2013-04-21 18:30:00,
2013-04-21 14:35:00,45.9,19.1,30.60,SW,232,3.0,3.0,34,0.00,,,0.00,Wunderground v.1.13,2013-04-21 18:35:00,
2013-04-21 14:40:00,46.1,19.9,30.60,WNW,290,3.0,7.0,35,0.00,,,0.00,Wunderground v.1.13,2013-04-21 18:40:00,
2013-04-21 14:45:00,46.0,20.5,30.60,NW,305,3.0,4.0,36,0.00,,,0.00,Wunderground v.1.13,2013-04-21 18:45:00,
2013-04-21 14:50:00,46.5,18.9,30.60,North,355,6.0,11.0,33,0.00,,,0.00,Wunderground v.1.13,2013-04-21 18:50:00,
2013-04-21 14:55:00,46.4,19.5,30.60,SSW,209,3.0,7.0,34,0.00,,,0.00,Wunderground v.1.13,2013-04-21 18:55:00,
2013-04-21 15:00:00,46.2,18.6,30.60,South,171,5.0,13.0,33,0.00,,,0.00,Wunderground v.1.13,2013-04-21 19:00:00,
2013-04-21 15:05:00,46.1,19.2,30.60,NNW,329,4.0,9.0,34,0.00,,,0.00,Wunderground v.1.13,2013-04-21 19:05:00,
2013-04-21 15:10:00,46.5,20.9,30.60,North,360,2.0,10.0,36,0.00,,,0.00,Wunderground v.1.13,2013-04-21 19:10:00,
2013-04-21 15:16:00,47.1,18.7,30.60,South,175,0.0,5.0,32,0.00,,,0.00,Wunderground v.1.13,2013-04-21 19:16:00,
2013-04-21 15:21:00,47.0,17.9,30.60,NNE,17,4.0,6.0,31,0.00,,,0.00,Wunderground v.1.13,2013-04-21 19:21:00,
2013-04-21 15:26:00,46.8,18.5,30.60,NNW,342,3.0,6.0,32,0.00,,,0.00,Wunderground v.1.13,2013-04-21 19:26:00,
2013-04-21 15:31:00,47.0,19.3,30.59,North,351,3.0,3.0,33,0.00,,,0.00,Wunderground v.1.13,2013-04-21 19:31:00,
2013-04-21 15:36:00,47.3,18.9,30.60,West,280,3.0,6.0,32,0.00,,,0.00,Wunderground v.1.13,2013-04-21 19:36:00,
2013-04-21 15:41:00,46.9,18.5,30.60,NW,320,4.0,4.0,32,0.00,,,0.00,Wunderground v.1.13,2013-04-21 19:41:00,
2013-04-21 15:46:00,46.8,18.5,30.60,WSW,252,3.0,4.0,32,0.00,,,0.00,Wunderground v.1.13,2013-04-21 19:46:00,
2013-04-21 15:51:00,47.1,20.8,30.60,NW,321,4.0,5.0,35,0.00,,,0.00,Wunderground v.1.13,2013-04-21 19:51:00,
2013-04-21 15:56:00,47.4,20.4,30.60,NW,305,2.0,3.0,34,0.00,,,0.00,Wunderground v.1.13,2013-04-21 19:56:00,
2013-04-21 16:01:00,47.5,19.1,30.59,WSW,248,6.0,6.0,32,0.00,,,0.00,Wunderground v.1.13,2013-04-21 20:01:00,
2013-04-21 16:06:00,47.5,17.6,30.60,NE,34,4.0,7.0,30,0.00,,,0.00,Wunderground v.1.13,2013-04-21 20:06:00,
2013-04-21 16:11:00,47.4,19.7,30.59,ENE,65,4.0,6.0,33,0.00,,,0.00,Wunderground v.1.13,2013-04-21 20:11:00,
2013-04-21 16:17:00,47.6,19.2,30.60,North,355,2.0,4.0,32,0.00,,,0.00,Wunderground v.1.13,2013-04-21 20:17:00,
2013-04-21 16:22:00,48.1,18.8,30.60,ENE,67,6.0,6.0,31,0.00,,,0.00,Wunderground v.1.13,2013-04-21 20:22:00,
2013-04-21 16:27:00,48.2,19.7,30.60,West,271,1.0,3.0,32,0.00,,,0.00,Wunderground v.1.13,2013-04-21 20:27:00,
2013-04-21 16:33:00,48.1,19.6,30.60,ENE,76,3.0,5.0,32,0.00,,,0.00,Wunderground v.1.13,2013-04-21 20:33:00,
2013-04-21 16:38:00,48.1,19.6,30.60,NNW,337,2.0,7.0,32,0.00,,,0.00,Wunderground v.1.13,2013-04-21 20:38:00,
2013-04-21 16:43:00,47.8,18.6,30.60,North,9,2.0,3.0,31,0.00,,,0.00,Wunderground v.1.13,2013-04-21 20:43:00,
2013-04-21 16:48:00,47.7,19.2,30.60,West,275,3.0,3.0,32,0.00,,,0.00,Wunderground v.1.13,2013-04-21 20:48:00,
2013-04-21 16:53:00,47.6,18.4,30.60,NW,319,3.0,7.0,31,0.00,,,0.00,Wunderground v.1.13,2013-04-21 20:53:00,
2013-04-21 16:58:00,47.7,20.0,30.61,NNE,15,2.0,3.0,33,0.00,,,0.00,Wunderground v.1.13,2013-04-21 20:58:00,
2013-04-21 17:03:00,48.2,19.7,30.61,North,360,2.0,6.0,32,0.00,,,0.00,Wunderground v.1.13,2013-04-21 21:03:00,
2013-04-21 17:08:00,48.3,19.8,30.61,NNW,335,5.0,5.0,32,0.00,,,0.00,Wunderground v.1.13,2013-04-21 21:08:00,
2013-04-21 17:13:00,48.1,18.8,30.61,NNW,337,5.0,5.0,31,0.00,,,0.00,Wunderground v.1.13,2013-04-21 21:13:00,
2013-04-21 17:19:00,47.8,17.8,30.61,WNW,286,3.0,6.0,30,0.00,,,0.00,Wunderground v.1.13,2013-04-21 21:19:00,
2013-04-21 17:24:00,47.6,19.2,30.61,NNE,13,0.0,5.0,32,0.00,,,0.00,Wunderground v.1.13,2013-04-21 21:24:00,
2013-04-21 17:29:00,47.5,17.6,30.61,NNW,334,1.0,6.0,30,0.00,,,0.00,Wunderground v.1.13,2013-04-21 21:29:00,
2013-04-21 17:34:00,47.4,18.2,30.61,NW,312,4.0,5.0,31,0.00,,,0.00,Wunderground v.1.13,2013-04-21 21:34:00,
2013-04-21 17:39:00,47.3,18.1,30.61,WNW,294,3.0,6.0,31,0.00,,,0.00,Wunderground v.1.13,2013-04-21 21:39:00,
2013-04-21 17:45:00,47.2,20.2,30.61,North,9,2.0,2.0,34,0.00,,,0.00,Wunderground v.1.13,2013-04-21 21:45:00,
2013-04-21 17:50:00,47.3,18.9,30.62,NNE,19,2.0,4.0,32,0.00,,,0.00,Wunderground v.1.13,2013-04-21 21:50:00,
2013-04-21 17:55:00,47.1,18.0,30.62,West,271,1.0,2.0,31,0.00,,,0.00,Wunderground v.1.13,2013-04-21 21:55:00,
2013-04-21 18:00:00,47.2,19.5,30.62,North,350,0.0,1.0,33,0.00,,,0.00,Wunderground v.1.13,2013-04-21 22:00:00,
2013-04-21 18:05:00,47.2,18.1,30.62,NNE,15,0.0,1.0,31,0.00,,,0.00,Wunderground v.1.13,2013-04-21 22:05:00,
2013-04-21 18:10:00,46.9,17.8,30.62,NNW,341,0.0,1.0,31,0.00,,,0.00,Wunderground v.1.13,2013-04-21 22:10:00,
2013-04-21 18:15:00,46.7,19.1,30.62,NNW,327,0.0,1.0,33,0.00,,,0.00,Wunderground v.1.13,2013-04-21 22:15:00,
2013-04-21 18:20:00,46.4,19.5,30.62,NNW,327,2.0,2.0,34,0.00,,,0.00,Wunderground v.1.13,2013-04-21 22:20:00,
2013-04-21 18:25:00,45.7,18.9,30.62,North,360,3.0,3.0,34,0.00,,,0.00,Wunderground v.1.13,2013-04-21 22:25:00,
2013-04-21 18:30:00,45.0,20.3,30.62,NW,323,0.0,2.0,37,0.00,,,0.00,Wunderground v.1.13,2013-04-21 22:30:00,
2013-04-21 18:35:00,44.4,18.4,30.62,NW,323,0.0,1.0,35,0.00,,,0.00,Wunderground v.1.13,2013-04-21 22:35:00,
2013-04-21 18:40:00,43.8,17.9,30.63,SW,224,0.0,1.0,35,0.00,,,0.00,Wunderground v.1.13,2013-04-21 22:40:00,
2013-04-21 18:46:00,43.1,21.5,30.63,SW,230,2.0,4.0,42,0.00,,,0.00,Wunderground v.1.13,2013-04-21 22:46:00,
2013-04-21 18:51:00,42.7,18.8,30.63,West,277,2.0,3.0,38,0.00,,,0.00,Wunderground v.1.13,2013-04-21 22:51:00,
2013-04-21 18:56:00,42.5,24.2,30.64,West,277,2.0,2.0,48,0.00,,,0.00,Wunderground v.1.13,2013-04-21 22:56:00,
2013-04-21 19:01:00,41.5,20.6,30.64,West,268,0.0,1.0,43,0.00,,,0.00,Wunderground v.1.13,2013-04-21 23:01:00,
2013-04-21 19:06:00,41.0,20.7,30.64,West,269,0.0,2.0,44,0.00,,,0.00,Wunderground v.1.13,2013-04-21 23:06:00,
2013-04-21 19:11:00,40.4,22.7,30.64,West,269,2.0,2.0,49,0.00,,,0.00,Wunderground v.1.13,2013-04-21 23:11:00,
2013-04-21 19:16:00,39.2,23.0,30.64,West,269,2.0,2.0,52,0.00,,,0.00,Wunderground v.1.13,2013-04-21 23:16:00,
2013-04-21 19:21:00,38.4,22.7,30.64,West,268,1.0,3.0,53,0.00,,,0.00,Wunderground v.1.13,2013-04-21 23:21:00,
2013-04-21 19:26:00,37.9,23.2,30.65,West,269,1.0,2.0,55,0.00,,,0.00,Wunderground v.1.13,2013-04-21 23:26:00,
2013-04-21 19:31:00,37.4,23.5,30.65,West,269,1.0,3.0,57,0.00,,,0.00,Wunderground v.1.13,2013-04-21 23:31:00,
2013-04-21 19:36:00,36.9,23.5,30.66,West,269,0.0,2.0,58,0.00,,,0.00,Wunderground v.1.13,2013-04-21 23:36:00,
2013-04-21 19:42:00,36.4,24.6,30.66,West,269,0.0,2.0,62,0.00,,,0.00,Wunderground v.1.13,2013-04-21 23:42:00,
2013-04-21 19:47:00,36.1,23.5,30.66,West,268,2.0,2.0,60,0.00,,,0.00,Wunderground v.1.13,2013-04-21 23:47:00,
2013-04-21 19:52:00,35.6,24.2,30.66,West,269,2.0,2.0,63,0.00,,,0.00,Wunderground v.1.13,2013-04-21 23:52:00,
2013-04-21 19:57:00,35.3,23.2,30.66,West,269,0.0,1.0,61,0.00,,,0.00,Wunderground v.1.13,2013-04-21 23:57:00,
2013-04-21 20:02:00,35.0,24.0,30.67,West,269,0.0,2.0,64,0.00,,,0.00,Wunderground v.1.13,2013-04-22 00:02:00,
2013-04-21 20:07:00,34.9,22.8,30.67,West,269,0.0,0.0,61,0.00,,,0.00,Wunderground v.1.13,2013-04-22 00:07:00,
2013-04-21 20:12:00,34.8,23.1,30.67,West,269,1.0,1.0,62,0.00,,,0.00,Wunderground v.1.13,2013-04-22 00:12:00,
2013-04-21 20:17:00,34.4,22.7,30.67,West,269,0.0,1.0,62,0.00,,,0.00,Wunderground v.1.13,2013-04-22 00:17:00,
2013-04-21 20:22:00,34.4,23.5,30.68,West,268,0.0,1.0,64,0.00,,,0.00,Wunderground v.1.13,2013-04-22 00:22:00,
2013-04-21 20:27:00,33.9,23.0,30.68,West,268,0.0,0.0,64,0.00,,,0.00,Wunderground v.1.13,2013-04-22 00:27:00,
2013-04-21 20:33:00,33.5,23.7,30.68,West,268,0.0,1.0,67,0.00,,,0.00,Wunderground v.1.13,2013-04-22 00:33:00,
2013-04-21 20:38:00,33.1,20.7,30.68,West,268,0.0,0.0,60,0.00,,,0.00,Wunderground v.1.13,2013-04-22 00:38:00,
2013-04-21 20:43:00,32.9,21.7,30.69,West,268,0.0,0.0,63,0.00,,,0.00,Wunderground v.1.13,2013-04-22 00:43:00,
2013-04-21 20:48:00,32.8,21.2,30.69,West,268,0.0,0.0,62,0.00,,,0.00,Wunderground v.1.13,2013-04-22 00:48:00,
2013-04-21 20:53:00,32.7,19.5,30.69,West,268,0.0,0.0,58,0.00,,,0.00,Wunderground v.1.13,2013-04-22 00:53:00,
2013-04-21 20:58:00,32.5,22.8,30.69,West,269,0.0,0.0,67,0.00,,,0.00,Wunderground v.1.13,2013-04-22 00:58:00,
2013-04-21 21:03:00,32.2,19.9,30.69,West,269,0.0,0.0,60,0.00,,,0.00,Wunderground v.1.13,2013-04-22 01:03:00,
2013-04-21 21:08:00,32.0,21.9,30.69,West,268,0.0,1.0,66,0.00,,,0.00,Wunderground v.1.13,2013-04-22 01:08:00,
2013-04-21 21:13:00,31.7,20.9,30.70,West,268,0.0,0.0,64,0.00,,,0.00,Wunderground v.1.13,2013-04-22 01:13:00,
2013-04-21 21:18:00,31.5,21.4,30.70,West,269,0.0,0.0,66,0.00,,,0.00,Wunderground v.1.13,2013-04-22 01:18:00,
2013-04-21 21:23:00,31.3,21.6,30.70,West,268,0.0,0.0,67,0.00,,,0.00,Wunderground v.1.13,2013-04-22 01:23:00,
2013-04-21 21:28:00,31.1,19.2,30.70,West,269,0.0,0.0,61,0.00,,,0.00,Wunderground v.1.13,2013-04-22 01:28:00,
2013-04-21 21:34:00,30.9,19.8,30.70,West,269,0.0,0.0,63,0.00,,,0.00,Wunderground v.1.13,2013-04-22 01:34:00,
2013-04-21 21:39:00,30.8,20.0,30.70,West,269,0.0,0.0,64,0.00,,,0.00,Wunderground v.1.13,2013-04-22 01:39:00,
2013-04-21 21:44:00,30.6,20.6,30.70,West,268,0.0,0.0,66,0.00,,,0.00,Wunderground v.1.13,2013-04-22 01:44:00,
2013-04-21 21:49:00,30.5,20.8,30.70,West,269,0.0,0.0,67,0.00,,,0.00,Wunderground v.1.13,2013-04-22 01:49:00,
2013-04-21 21:54:00,30.4,21.1,30.70,West,269,0.0,0.0,68,0.00,,,0.00,Wunderground v.1.13,2013-04-22 01:54:00,
2013-04-21 21:59:00,30.2,20.9,30.71,West,269,0.0,0.0,68,0.00,,,0.00,Wunderground v.1.13,2013-04-22 01:59:00,
2013-04-21 22:04:00,30.0,21.1,30.71,West,269,0.0,0.0,69,0.00,,,0.00,Wunderground v.1.13,2013-04-22 02:04:00,
2013-04-21 22:09:00,29.8,20.2,30.71,West,269,0.0,0.0,67,0.00,,,0.00,Wunderground v.1.13,2013-04-22 02:09:00,
2013-04-21 22:14:00,29.7,21.8,30.71,West,269,0.0,0.0,72,0.00,,,0.00,Wunderground v.1.13,2013-04-22 02:14:00,
2013-04-21 22:19:00,29.4,20.1,30.71,West,268,0.0,0.0,68,0.00,,,0.00,Wunderground v.1.13,2013-04-22 02:19:00,
2013-04-21 22:25:00,29.3,20.7,30.72,West,269,0.0,0.0,70,0.00,,,0.00,Wunderground v.1.13,2013-04-22 02:25:00,
2013-04-21 22:30:00,29.2,20.6,30.72,West,268,0.0,0.0,70,0.00,,,0.00,Wunderground v.1.13,2013-04-22 02:30:00,
2013-04-21 22:35:00,29.1,20.5,30.72,West,269,0.0,0.0,70,0.00,,,0.00,Wunderground v.1.13,2013-04-22 02:35:00,
2013-04-21 22:41:00,29.0,21.1,30.72,West,269,0.0,0.0,72,0.00,,,0.00,Wunderground v.1.13,2013-04-22 02:41:00,
2013-04-21 22:46:00,28.9,20.3,30.72,West,268,0.0,0.0,70,0.00,,,0.00,Wunderground v.1.13,2013-04-22 02:46:00,
2013-04-21 22:51:00,28.8,19.9,30.72,West,269,0.0,0.0,69,0.00,,,0.00,Wunderground v.1.13,2013-04-22 02:51:00,
2013-04-21 22:56:00,28.7,20.8,30.72,West,269,0.0,0.0,72,0.00,,,0.00,Wunderground v.1.13,2013-04-22 02:56:00,
2013-04-21 23:01:00,28.7,21.1,30.72,West,269,0.0,0.0,73,0.00,,,0.00,Wunderground v.1.13,2013-04-22 03:01:00,
2013-04-21 23:06:00,28.6,20.7,30.71,West,268,0.0,0.0,72,0.00,,,0.00,Wunderground v.1.13,2013-04-22 03:06:00,
2013-04-21 23:11:00,28.6,20.7,30.71,West,269,0.0,0.0,72,0.00,,,0.00,Wunderground v.1.13,2013-04-22 03:11:00,
2013-04-21 23:17:00,28.5,20.3,30.71,West,269,0.0,0.0,71,0.00,,,0.00,Wunderground v.1.13,2013-04-22 03:17:00,
2013-04-21 23:22:00,28.4,20.5,30.72,West,268,0.0,0.0,72,0.00,,,0.00,Wunderground v.1.13,2013-04-22 03:22:00,
2013-04-21 23:27:00,28.4,20.2,30.72,West,269,0.0,0.0,71,0.00,,,0.00,Wunderground v.1.13,2013-04-22 03:27:00,
2013-04-21 23:32:00,28.2,21.3,30.72,West,269,0.0,2.0,75,0.00,,,0.00,Wunderground v.1.13,2013-04-22 03:32:00,
2013-04-21 23:37:00,28.1,21.2,30.72,West,269,0.0,2.0,75,0.00,,,0.00,Wunderground v.1.13,2013-04-22 03:37:00,
2013-04-21 23:42:00,28.0,20.8,30.72,West,268,0.0,0.0,74,0.00,,,0.00,Wunderground v.1.13,2013-04-22 03:42:00,
2013-04-21 23:47:00,27.9,21.0,30.72,West,269,0.0,0.0,75,0.00,,,0.00,Wunderground v.1.13,2013-04-22 03:47:00,
2013-04-21 23:52:00,27.8,21.2,30.72,West,268,0.0,0.0,76,0.00,,,0.00,Wunderground v.1.13,2013-04-22 03:52:00,
2013-04-21 23:57:00,27.7,21.1,30.72,West,268,0.0,0.0,76,0.00,,,0.00,Wunderground v.1.13,2013-04-22 03:57:00,